Regional Weather Roundup
Issued by NWS

Home | Current Version | Previous Version | Graphics & Text | Print | Product List | Glossary On
Versions: 1 2 3 4 5 6 7 8 9 10 11 12 13 14 15 16 17 18 19 20 21 22 23 24 25 26 27 28 29 30 31 32 33 34 35 36 37 38 39 40 41 42 43 44 45 46 47 48 49 50
000
ASUS43 KLMK 082302
RWRKY
KENTUCKY REGIONAL WEATHER ROUNDUP
NATIONAL WEATHER SERVICE LOUISVILLE KY
600 PM EST MON FEB 08 2016

NOTE "FAIR" INDICATES FEW OR NO CLOUDS BELOW 12,000 FEET
WITH NO SIGNIFICANT WEATHER AND/OR OBSTRUCTIONS TO VISIBILITY.

KYZ001>023-026-027-061>063-070>075-090000-
WESTERN AND SOUTH CENTRAL KENTUCKY

CITY           SKY/WX    TMP DP  RH WIND       PRES   REMARKS
PADUCAH        CLOUDY    32  18  56 NW14G21   29.90R WCI  22
HENDERSON      CLOUDY    28  21  74 W15       29.87R WCI  17
OWENSBORO      FLURRIES  30  23  75 NW12      29.86R WCI  20
HOPKINSVILLE   LGT SNOW  29  27  92 W9        29.87R FOG     WCI  21
BOWLING GREEN  FLURRIES  31  25  78 W14G20    29.85R WCI  21
GLASGOW        NOT AVBL
$$

KYZ024-025-028>034-038-045-046-053-090000-
NORTH CENTRAL KENTUCKY

CITY           SKY/WX    TMP DP  RH WIND       PRES   REMARKS
LOUISVILLE/SDF CLOUDY    31  24  75 W20G28    29.78R WCI  19
LOUISVILLE/LOU LGT SNOW  31  26  82 W18G25    29.78R WCI  19
FORT KNOX      FLURRIES  29  22  76 W14G24    29.77R WCI  18
$$

KYZ035>037-039>044-047>052-055>060-089>105-090000-
NORTHEAST KENTUCKY

CITY           SKY/WX    TMP DP  RH WIND       PRES   REMARKS
LEXINGTON      LGT SNOW  32  29  88 W15G21    29.72R FOG     WCI  22
COVINGTON      LGT SNOW  33  31  92 W9        29.66S VSB 3/4 WCI  25
FRANKFORT      LGT SNOW  32  29  88 W10G23    29.71R FOG     WCI  24
$$

KYZ054-064>069-076>088-106>120-090000-
SOUTHEAST KENTUCKY

CITY           SKY/WX    TMP DP  RH WIND       PRES   REMARKS
JACKSON        CLOUDY    35  28  75 CALM      29.68R
LONDON         LGT SNOW  33  29  85 W8        29.73R FOG     WCI  26
SOMERSET       NOT AVBL
MIDDLESBORO    NOT AVBL
MONTICELLO     LGT SNOW  34  29  82 W10G17    29.78R WCI  26
$$




USA.gov is the U.S. government's official web portal to all federal, state and local government web resources and services.